Weather History for KITH - May, 2013

Change the Weather History Date:

Sunday, May 5, 2013

  Actual Average Record
Temperature  
Mean Temperature 60 °F -  
Max Temperature 74 °F 60 °F 89 °F (1955)
Min Temperature 46 °F 38 °F 3 °F (2011)
Degree Days  
Heating Degree Days 5    
Growing Degree Days 10 (Base 50)    
Moisture  
Dew Point 35 °F    
Average Humidity 41    
Maximum Humidity 81    
Minimum Humidity 19    
Precipitation  
Precipitation 0.00 in - - ()
Sea Level Pressure  
Sea Level Pressure 30.18 in    
Wind  
Wind Speed 7 mph (SE)    
Max Wind Speed 10 mph    
Max Gust Speed 18 mph    
Visibility 10 miles    
Events      
Averages and records for this station are not official NWS values.
T = Trace of Precipitation, MM = Missing Value Source: NWS Daily Summary

Daily Weather History Graph

Daily Weather History Graph

Search for Another Location

Airport or City:

Trip Planner

Search our weather history database for the weather conditions in past years. The results will help you decide how hot, cold, wet, or windy it might be!

Date:

Astronomy

May. 05, 2013 Rise Set
Actual Time 5:55 AM EDT 8:10 PM EDT
Civil Twilight 5:24 AM EDT 8:41 PM EDT
Nautical Twilight 4:45 AM EDT 9:20 PM EDT
Astronomical Twilight 4:03 AM EDT 10:03 PM EDT
Moon 3:30 AM EDT (5/5) 4:02 PM EDT (5/5)
Length of Visible Light 15h 17m
Length of Day
14h 15m
Waning Crescent, 18% of the Moon is Illuminated
May 5
Waning Crescent
May 9
New
May 18
First Quarter
May 25
Full
May 31
Last Quarter

Hourly Weather History & Observations

Time (EDT) Temp. Windchill Dew Point Humidity Pressure Visibility Wind Dir Wind Speed Gust Speed Precip Events Conditions
12:56 AM 50.9 °F - 39.9 °F 66% 30.21 in 10.0 mi SE 5.8 mph - N/A   Clear
1:56 AM 54.9 °F - 38.8 °F 55% 30.20 in 10.0 mi SSE 10.4 mph - N/A   Clear
2:56 AM 55.9 °F - 37.9 °F 51% 30.21 in 10.0 mi SE 5.8 mph - N/A   Clear
3:56 AM 52.9 °F - 37.9 °F 57% 30.21 in 10.0 mi South 4.6 mph - N/A   Clear
4:56 AM 50.9 °F - 38.8 °F 63% 30.21 in 10.0 mi ESE 4.6 mph - N/A   Clear
5:56 AM 50.9 °F - 37.9 °F 61% 30.21 in 10.0 mi SE 5.8 mph - N/A   Clear
6:21 AM 46.4 °F 45.2 °F 41.0 °F 81% 30.22 in 10.0 mi ESE 3.5 mph - N/A   Clear
6:56 AM 50.9 °F - 38.8 °F 63% 30.23 in 10.0 mi ESE 3.5 mph - N/A   Clear
7:56 AM 55.9 °F - 39.9 °F 55% 30.24 in 10.0 mi South 9.2 mph - N/A   Clear
8:56 AM 59.0 °F - 41.0 °F 51% 30.25 in 10.0 mi South 9.2 mph - N/A   Clear
9:56 AM 63.0 °F - 41.0 °F 45% 30.24 in 10.0 mi SE 4.6 mph - N/A   Clear
10:56 AM 65.8 °F - 41.0 °F 40% 30.23 in 10.0 mi South 5.8 mph - N/A   Clear
11:56 AM 68.9 °F - 38.8 °F 33% 30.22 in 10.0 mi South 6.9 mph - N/A   Clear
12:56 PM 70.9 °F - 34.9 °F 27% 30.19 in 10.0 mi Variable 5.8 mph - N/A   Clear
1:56 PM 72.0 °F - 34.0 °F 25% 30.17 in 10.0 mi ENE 9.2 mph 18.4 mph N/A   Clear
2:56 PM 73.9 °F - 34.9 °F 24% 30.16 in 10.0 mi ENE 9.2 mph - N/A   Clear
3:56 PM 73.9 °F - 30.0 °F 20% 30.13 in 10.0 mi East 6.9 mph 17.3 mph N/A   Partly Cloudy
4:56 PM 74.8 °F - 30.0 °F 19% 30.12 in 10.0 mi SE 10.4 mph - N/A   Clear
5:56 PM 74.8 °F - 30.0 °F 19% 30.11 in 10.0 mi ESE 8.1 mph - N/A   Clear
6:56 PM 73.9 °F - 31.1 °F 21% 30.11 in 10.0 mi SE 4.6 mph - N/A   Clear
7:56 PM 68.9 °F - 28.0 °F 22% 30.12 in 10.0 mi SSW 10.4 mph - N/A   Clear
8:56 PM 63.0 °F - 27.1 °F 26% 30.14 in 10.0 mi South 5.8 mph - N/A   Clear
9:56 PM 55.9 °F - 32.9 °F 42% 30.15 in 10.0 mi SE 5.8 mph - N/A   Clear
10:56 PM 59.9 °F - 23.0 °F 24% 30.16 in 10.0 mi SE 9.2 mph - N/A   Clear
11:56 PM 57.9 °F - 25.2 °F 28% 30.17 in 10.0 mi SSE 8.1 mph - N/A   Clear